TimeCDT,TemperatureF,Dew PointF,Humidity,Sea Level PressureIn,VisibilityMPH,Wind Direction,Wind SpeedMPH,Gust SpeedMPH,PrecipitationIn,Events,Conditions,WindDirDegrees,DateUTC
12:15 AM,64.9,53.6,67,30.03,10.0,SSW,6.9,-,N/A,,Clear,200,2014-04-01 05:15:00
12:35 AM,64.6,53.8,68,30.03,10.0,SSW,8.1,-,N/A,,Clear,200,2014-04-01 05:35:00
1:15 AM,63.5,54.1,72,30.04,10.0,Calm,Calm,-,N/A,,Clear,0,2014-04-01 06:15:00
1:35 AM,62.6,54.1,74,30.04,10.0,Calm,Calm,-,N/A,,Clear,0,2014-04-01 06:35:00
1:55 AM,61.5,54.1,77,30.05,10.0,Calm,Calm,-,N/A,,Clear,0,2014-04-01 06:55:00
2:15 AM,59.2,53.6,82,30.05,10.0,Calm,Calm,-,N/A,,Clear,0,2014-04-01 07:15:00
2:35 AM,57.4,53.4,87,30.05,10.0,Calm,Calm,-,N/A,,Clear,0,2014-04-01 07:35:00
2:55 AM,57.4,53.6,87,30.05,10.0,Calm,Calm,-,N/A,,Clear,0,2014-04-01 07:55:00
3:15 AM,56.3,53.2,89,30.04,10.0,Calm,Calm,-,N/A,,Clear,0,2014-04-01 08:15:00
3:35 AM,57.7,53.8,87,30.04,10.0,Calm,Calm,-,N/A,,Clear,0,2014-04-01 08:35:00
3:55 AM,54.5,52.5,93,30.04,10.0,Calm,Calm,-,N/A,,Clear,0,2014-04-01 08:55:00
4:15 AM,57.2,54.1,89,30.04,10.0,Calm,Calm,-,N/A,,Clear,0,2014-04-01 09:15:00
4:35 AM,57.0,53.8,89,30.04,10.0,Calm,Calm,-,N/A,,Clear,0,2014-04-01 09:35:00
4:55 AM,57.0,53.8,89,30.04,10.0,Calm,Calm,-,N/A,,Clear,0,2014-04-01 09:55:00
5:15 AM,54.5,52.9,94,30.04,10.0,Calm,Calm,-,N/A,,Clear,0,2014-04-01 10:15:00
5:35 AM,54.7,52.5,92,30.05,10.0,Calm,Calm,-,N/A,,Clear,0,2014-04-01 10:35:00
5:55 AM,53.4,51.8,94,30.06,10.0,Calm,Calm,-,N/A,,Clear,0,2014-04-01 10:55:00
6:15 AM,53.1,51.8,95,30.06,7.0,Calm,Calm,-,N/A,,Scattered Clouds,0,2014-04-01 11:15:00
6:35 AM,52.2,50.9,95,30.06,10.0,Calm,Calm,-,N/A,,Scattered Clouds,0,2014-04-01 11:35:00
6:55 AM,52.9,51.6,95,30.06,10.0,Calm,Calm,-,N/A,,Scattered Clouds,0,2014-04-01 11:55:00
7:15 AM,54.9,53.6,96,30.06,10.0,Calm,Calm,-,N/A,,Clear,0,2014-04-01 12:15:00
7:35 AM,56.3,54.3,93,30.08,10.0,Calm,Calm,-,N/A,,Clear,0,2014-04-01 12:35:00
7:55 AM,56.8,54.9,93,30.09,10.0,Calm,Calm,-,N/A,,Scattered Clouds,0,2014-04-01 12:55:00
8:15 AM,59.0,55.8,89,30.09,10.0,Calm,Calm,-,N/A,,Mostly Cloudy,0,2014-04-01 13:15:00
8:35 AM,60.4,56.1,86,30.09,10.0,Calm,Calm,-,N/A,,Overcast,0,2014-04-01 13:35:00
8:55 AM,62.1,56.7,82,30.10,10.0,Calm,Calm,-,N/A,,Overcast,0,2014-04-01 13:55:00
9:15 AM,63.0,56.5,79,30.10,10.0,Calm,Calm,-,N/A,,Overcast,0,2014-04-01 14:15:00
9:35 AM,64.6,57.4,77,30.10,10.0,South,5.8,-,N/A,,Overcast,170,2014-04-01 14:35:00
9:55 AM,66.2,57.9,75,30.10,10.0,SSE,3.5,-,N/A,,Mostly Cloudy,160,2014-04-01 14:55:00
10:15 AM,68.0,58.8,72,30.11,10.0,SSE,5.8,-,N/A,,Overcast,160,2014-04-01 15:15:00
10:35 AM,68.9,59.2,71,30.11,10.0,South,6.9,-,N/A,,Overcast,180,2014-04-01 15:35:00
10:55 AM,69.1,59.2,71,30.10,10.0,South,5.8,-,N/A,,Overcast,180,2014-04-01 15:55:00
11:15 AM,70.9,59.9,68,30.10,10.0,SSW,6.9,-,N/A,,Overcast,200,2014-04-01 16:15:00
11:35 AM,70.7,59.4,67,30.10,10.0,SW,4.6,-,N/A,,Overcast,220,2014-04-01 16:35:00
11:55 AM,71.2,59.5,66,30.10,10.0,Calm,Calm,-,N/A,,Mostly Cloudy,0,2014-04-01 16:55:00
12:15 PM,70.2,59.4,69,30.09,10.0,SW,8.1,-,N/A,,Overcast,220,2014-04-01 17:15:00
12:35 PM,73.2,59.7,63,30.08,10.0,SSW,5.8,-,N/A,,Mostly Cloudy,210,2014-04-01 17:35:00
12:55 PM,75.0,58.8,57,30.08,10.0,SSE,9.2,-,N/A,,Scattered Clouds,160,2014-04-01 17:55:00
1:15 PM,74.5,58.5,57,30.07,10.0,SSW,10.4,-,N/A,,Scattered Clouds,200,2014-04-01 18:15:00
1:35 PM,76.1,58.3,54,30.06,10.0,Calm,Calm,-,N/A,,Scattered Clouds,0,2014-04-01 18:35:00
1:55 PM,76.8,58.1,52,30.05,10.0,South,4.6,-,N/A,,Scattered Clouds,170,2014-04-01 18:55:00
2:15 PM,77.7,58.3,51,30.04,10.0,South,10.4,16.1,N/A,,Scattered Clouds,170,2014-04-01 19:15:00
2:35 PM,77.7,59.0,52,30.04,10.0,SSE,8.1,-,N/A,,Scattered Clouds,160,2014-04-01 19:35:00
2:55 PM,77.0,58.1,52,30.03,10.0,SSE,8.1,-,N/A,,Mostly Cloudy,160,2014-04-01 19:55:00
3:15 PM,78.3,58.5,50,30.02,10.0,South,8.1,-,N/A,,Scattered Clouds,170,2014-04-01 20:15:00
3:35 PM,78.8,58.3,49,30.02,10.0,SSE,9.2,-,N/A,,Scattered Clouds,160,2014-04-01 20:35:00
3:55 PM,78.1,58.1,50,30.01,10.0,ESE,5.8,-,N/A,,Scattered Clouds,120,2014-04-01 20:55:00
4:15 PM,76.6,57.4,51,30.00,10.0,Calm,Calm,-,N/A,,Mostly Cloudy,0,2014-04-01 21:15:00
4:35 PM,79.0,58.1,49,30.00,10.0,South,9.2,-,N/A,,Mostly Cloudy,190,2014-04-01 21:35:00
4:55 PM,79.7,58.6,48,30.00,10.0,SSE,9.2,-,N/A,,Mostly Cloudy,160,2014-04-01 21:55:00
5:15 PM,79.0,58.3,49,29.99,10.0,SSE,5.8,-,N/A,,Scattered Clouds,160,2014-04-01 22:15:00
5:35 PM,78.1,58.3,50,29.99,10.0,Calm,Calm,-,N/A,,Clear,0,2014-04-01 22:35:00
5:55 PM,77.4,58.5,52,29.99,10.0,South,5.8,-,N/A,,Scattered Clouds,170,2014-04-01 22:55:00
6:15 PM,77.5,58.6,52,29.99,10.0,Calm,Calm,-,N/A,,Scattered Clouds,0,2014-04-01 23:15:00
6:35 PM,76.3,59.0,55,29.99,10.0,Calm,Calm,-,N/A,,Mostly Cloudy,0,2014-04-01 23:35:00
6:55 PM,76.1,59.4,56,29.99,10.0,South,4.6,-,N/A,,Overcast,180,2014-04-01 23:55:00
7:15 PM,74.8,59.9,60,29.99,10.0,Calm,Calm,-,N/A,,Overcast,0,2014-04-02 00:15:00
7:35 PM,74.3,60.1,61,29.99,10.0,Calm,Calm,-,N/A,,Overcast,0,2014-04-02 00:35:00
7:55 PM,73.6,60.3,63,29.99,10.0,Calm,Calm,-,N/A,,Overcast,0,2014-04-02 00:55:00
8:15 PM,73.0,60.8,65,29.99,10.0,Calm,Calm,-,N/A,,Overcast,0,2014-04-02 01:15:00
8:35 PM,72.5,61.0,67,29.99,10.0,Calm,Calm,-,N/A,,Overcast,0,2014-04-02 01:35:00
8:55 PM,70.9,60.8,70,30.00,10.0,Calm,Calm,-,N/A,,Overcast,0,2014-04-02 01:55:00
9:15 PM,69.6,61.0,74,30.00,10.0,Calm,Calm,-,N/A,,Mostly Cloudy,0,2014-04-02 02:15:00
9:35 PM,69.1,61.2,76,30.00,10.0,Calm,Calm,-,N/A,,Mostly Cloudy,0,2014-04-02 02:35:00
9:55 PM,68.9,61.0,76,29.99,10.0,Calm,Calm,-,N/A,,Mostly Cloudy,0,2014-04-02 02:55:00
10:15 PM,67.3,61.0,80,29.99,10.0,Calm,Calm,-,N/A,,Scattered Clouds,0,2014-04-02 03:15:00
10:35 PM,64.9,60.8,86,29.99,10.0,Calm,Calm,-,N/A,,Clear,0,2014-04-02 03:35:00
10:55 PM,64.6,60.6,87,29.99,10.0,Calm,Calm,-,N/A,,Scattered Clouds,0,2014-04-02 03:55:00
11:15 PM,66.0,61.3,85,29.99,10.0,Calm,Calm,-,N/A,,Mostly Cloudy,0,2014-04-02 04:15:00
11:35 PM,66.7,61.2,82,29.99,10.0,Calm,Calm,-,N/A,,Overcast,0,2014-04-02 04:35:00
11:55 PM,68.0,61.7,80,30.00,10.0,Calm,Calm,-,N/A,,Overcast,0,2014-04-02 04:55:00